Location: Zagreb
(45.8000°N, 16.0000°E)
Time: 15:35:28
(UTC+02:00)

Vanguard 1 - Pass Details

Date: 14 August 2022
Orbit: 649 x 3832 km, 34.2° (Epoch: 25 September)

Event Time Altitude Azimuth Distance (km) Brightness Sun altitude
Rises 09:24:41 0° 276° (W) 7,095 13.9 35.1°
Reaches altitude 10° 09:29:17 10° 271° (W) 6,376 13.8 35.8°
Maximum altitude 09:49:23 46° 208° (SSW) 4,609 13.9 39.1°
Drops below altitude 10° 10:09:05 10° 143° (SE) 6,224 15.1 42.2°
Sets 10:13:34 0° 138° (SE) 6,917 15.1 42.9°
